Wind from 069 at 1 knots gusting 4

Air temperature 14.4° C
Dewpoint 11.6° C

Last reported at 2014-Apr-19 16:46 UTC.
Time now 2014-Apr-19 17:11 UTC

Location: N 40°41' E 022°51'.
View on Google Maps.

See reports from other nearby stations

Tides Stations Pressure Air Temp Water Temp Dewpoint Dewpoint depression Visibility Wind Speed Wind Dir Waves Ship positions

  
sailing weather and tide predictions

SV2BZQ-2 Thessalonik GR weather

date/time (UTC)wind fromknots sea level pressurealtimeterstation pressurevisibilityair tempwater tempwave heightnotes
2014-Apr-19 16:46 069 1 gusting 4 14.4
2014-Apr-19 16:42 051 2 gusting 4 14.4
2014-Apr-19 16:39 061 1 gusting 4 13.9
2014-Apr-19 16:26 081 1 gusting 2 14.4
2014-Apr-19 16:24 082 2 gusting 6 14.4
2014-Apr-19 16:16 055 3 gusting 5 15.0
2014-Apr-19 16:12 056 3 gusting 5 15.0
2014-Apr-19 16:09 055 2 gusting 6 14.4
2014-Apr-19 15:56 043 2 gusting 7 15.6
2014-Apr-19 15:54 053 3 gusting 9 15.0
2014-Apr-19 15:46 076 1 gusting 3 15.0
2014-Apr-19 15:42 055 4 gusting 6 15.0
2014-Apr-19 15:39 078 5 gusting 9 14.4
2014-Apr-19 15:26 079 2 gusting 3 15.0
2014-Apr-19 15:23 026 0 gusting 7 14.4
2014-Apr-19 15:16 022 4 gusting 5 14.4
2014-Apr-19 15:12 052 2 gusting 5 14.4
2014-Apr-19 15:08 042 3 gusting 9 13.9
2014-Apr-19 14:56 042 3 gusting 5 14.4
2014-Apr-19 14:53 061 2 gusting 7 14.4
2014-Apr-19 14:46 051 3 gusting 6 14.4
2014-Apr-19 14:42 033 1 gusting 2 14.4
2014-Apr-19 14:38 051 0 gusting 7 14.4
2014-Apr-19 14:32 041 3 gusting 5 14.4
2014-Apr-19 14:26 040 2 gusting 6 14.4
2014-Apr-19 14:23 018 4 gusting 7 14.4
2014-Apr-19 14:16 062 1 gusting 2 14.4
2014-Apr-19 14:08 075 2 gusting 7 14.4
2014-Apr-19 13:56 060 3 gusting 3 14.4
2014-Apr-19 13:53 061 3 gusting 6 14.4
2014-Apr-19 13:46 068 1 gusting 1 14.4
2014-Apr-19 13:38 017 0 gusting 5 14.4
2014-Apr-19 13:32 063 3 gusting 6 14.4
2014-Apr-19 13:26 350 1 gusting 2 15.0
2014-Apr-19 13:22 15.0
2014-Apr-19 13:16 053 0 gusting 4 15.0
2014-Apr-19 13:12 032 1 gusting 4 15.0
2014-Apr-19 13:07 030 2 gusting 6 14.4
2014-Apr-19 13:02 040 3 gusting 6 15.0
2014-Apr-19 12:56 063 1 gusting 3 15.0
2014-Apr-19 12:52 062 0 gusting 1 15.0
2014-Apr-19 12:46 062 2 gusting 5 15.0
2014-Apr-19 12:42 068 2 gusting 2 15.0
2014-Apr-19 12:37 067 1 gusting 4 14.4
2014-Apr-19 12:32 078 0 gusting 2 15.0
2014-Apr-19 12:26 062 1 gusting 2 15.0
2014-Apr-19 12:22 059 0 gusting 2 15.0
2014-Apr-19 12:16 125 0 gusting 2 15.0
2014-Apr-19 12:12 125 0 gusting 2 15.0
2014-Apr-19 12:07 125 0 gusting 6 15.0
2014-Apr-19 12:02 117 0 gusting 4 15.0
2014-Apr-19 11:56 113 0 gusting 3 15.0
2014-Apr-19 11:52 113 15.0
2014-Apr-19 11:46 112 2 gusting 5 15.6
2014-Apr-19 11:42 119 0 gusting 2 15.6
2014-Apr-19 11:37 119 0 gusting 6 15.0
2014-Apr-19 11:32 154 2 gusting 5 15.6
2014-Apr-19 11:26 157 0 gusting 4 15.6
2014-Apr-19 11:22 159 0 gusting 3 15.6
2014-Apr-19 11:16 133 0 gusting 0 15.6
2014-Apr-19 11:07 141 15.0
2014-Apr-19 11:02 140 0 gusting 0 15.6
2014-Apr-19 10:56 138 1 gusting 3 15.6
2014-Apr-19 10:52 123 1 gusting 5 15.6
2014-Apr-19 10:51 144 0 gusting 6 15.6
2014-Apr-19 10:42 121 15.6
2014-Apr-19 10:36 117 4 gusting 7 15.6
2014-Apr-19 10:26 150 15.6
2014-Apr-19 10:22 134 2 gusting 2 15.6
2014-Apr-19 10:21 134 2 gusting 4 15.0
2014-Apr-19 10:12 134 1 gusting 3 15.0
2014-Apr-19 10:06 134 15.0
2014-Apr-19 09:56 123 1 gusting 2 14.4
2014-Apr-19 09:52 138 14.4
2014-Apr-19 09:50 137 14.4
2014-Apr-19 09:36 151 0 gusting 4 13.9
2014-Apr-19 09:23 138 1 gusting 4 13.9
2014-Apr-19 09:10 129 2 gusting 6 13.9
2014-Apr-19 08:50 099 0 gusting 5 13.9
2014-Apr-19 08:38 183 13.3
2014-Apr-19 08:05 157 12.2
2014-Apr-19 07:54 132 12.2
2014-Apr-19 07:35 137 1 gusting 6 11.7
2014-Apr-19 07:20 153 1 gusting 5 11.7
2014-Apr-19 07:05 159 11.1
2014-Apr-19 06:49 137 0 gusting 4 11.1
2014-Apr-19 06:35 115 11.1
2014-Apr-19 06:23 111 0 gusting 3 10.6
2014-Apr-19 06:04 086 10.0
2014-Apr-19 05:53 078 10.0
2014-Apr-19 05:35 076 10.0
2014-Apr-19 05:23 075 9.4
2014-Apr-19 05:04 026 9.4
2014-Apr-19 04:50 303 9.4
2014-Apr-19 04:33 303 9.4
2014-Apr-19 04:26 303 10.0
2014-Apr-19 04:18 301 10.0
2014-Apr-19 04:06 300 10.0
2014-Apr-19 04:03 300 10.0
2014-Apr-19 03:56 300 10.0
2014-Apr-19 03:48 300 10.0
2014-Apr-19 03:36 300 10.0
2014-Apr-19 03:33 300 10.0
2014-Apr-19 03:26 300 10.0
2014-Apr-19 03:18 299 9.4
2014-Apr-19 03:06 300 10.0
2014-Apr-19 03:03 299 9.4
2014-Apr-19 02:56 300 10.0
2014-Apr-19 02:48 300 10.0
2014-Apr-19 02:36 300 10.0
2014-Apr-19 02:32 300 10.0
2014-Apr-19 02:26 300 10.0
2014-Apr-19 02:17 299 10.0
2014-Apr-19 02:06 300 10.0
2014-Apr-19 02:03 299 10.0
2014-Apr-19 01:56 299 10.0
2014-Apr-19 01:47 300 10.0
2014-Apr-19 01:36 299 1 gusting 2 10.6
2014-Apr-19 01:33 298 1 gusting 4 10.0
2014-Apr-19 01:26 302 10.6
2014-Apr-19 01:17 304 1 gusting 4 10.0
2014-Apr-19 01:06 319 0 gusting 1 10.0
2014-Apr-19 01:02 319 10.0
2014-Apr-19 00:56 319 1 gusting 3 10.6
2014-Apr-19 00:47 318 1 gusting 3 10.0
2014-Apr-19 00:36 320 1 gusting 2 10.0
2014-Apr-19 00:32 320 1 gusting 3 10.0
2014-Apr-19 00:26 321 0 gusting 2 10.0
2014-Apr-19 00:17 322 1 gusting 3 10.0
2014-Apr-19 00:06 323 0 gusting 1 10.6
2014-Apr-19 00:02 323 1 gusting 3 10.0
2014-Apr-18 23:56 325 0 gusting 0 10.6
2014-Apr-18 23:46 325 10.6
2014-Apr-18 23:36 325 10.6
2014-Apr-18 23:32 325 10.0
2014-Apr-18 23:26 325 10.6
2014-Apr-18 23:16 325 10.6
2014-Apr-18 23:06 325 10.6
2014-Apr-18 23:01 325 10.0
2014-Apr-18 22:46 325 1 gusting 2 10.6
2014-Apr-18 22:36 325 10.6
2014-Apr-18 22:31 325 10.0
2014-Apr-18 22:26 325 10.6
2014-Apr-18 22:16 325 10.6
2014-Apr-18 22:06 325 10.6
2014-Apr-18 22:02 325 10.0
2014-Apr-18 21:56 325 10.6
2014-Apr-18 21:46 327 10.6
2014-Apr-18 21:36 327 10.6
2014-Apr-18 21:31 327 0 gusting 3 10.0
2014-Apr-18 21:16 327 1 gusting 2 10.6
2014-Apr-18 21:06 312 2 gusting 4 10.6
2014-Apr-18 21:00 315 2 gusting 6 10.6
2014-Apr-18 20:46 269 0 gusting 1 11.1
2014-Apr-18 20:45 269 0 gusting 2 10.6
2014-Apr-18 20:36 269 1 gusting 2 11.1
2014-Apr-18 20:30 268 1 gusting 5 11.1
2014-Apr-18 20:16 234 0 gusting 1 11.7
2014-Apr-18 20:15 234 0 gusting 3 11.1
2014-Apr-18 20:06 226 0 gusting 2 11.7
2014-Apr-18 20:00 218 11.1
2014-Apr-18 19:46 219 11.7
2014-Apr-18 19:45 219 11.1
2014-Apr-18 19:36 218 11.7
2014-Apr-18 19:30 219 11.7
2014-Apr-18 19:16 217 12.2
2014-Apr-18 19:15 217 11.7
2014-Apr-18 19:06 217 12.2
2014-Apr-18 19:00 217 11.7
2014-Apr-18 18:46 217 0 gusting 1 12.2
2014-Apr-18 18:44 217 12.2
2014-Apr-18 18:36 217 12.2
2014-Apr-18 18:29 217 12.2
2014-Apr-18 18:16 153 12.8
2014-Apr-18 18:14 153 12.2
2014-Apr-18 18:06 151 12.8
2014-Apr-18 17:59 150 0 gusting 2 12.8
2014-Apr-18 17:46 149 12.8
2014-Apr-18 17:44 149 12.8
2014-Apr-18 17:36 149 13.3
2014-Apr-18 17:29 149 12.8
2014-Apr-18 17:22 149 0 gusting 0 13.3
2014-Apr-18 17:17 144 1 gusting 2 13.3
2014-Apr-18 17:14 144 13.3
2014-Apr-18 17:07 144 13.3
2014-Apr-18 17:02 144 0 gusting 1 13.9
2014-Apr-18 16:59 143 13.3
2014-Apr-18 16:52 140 0 gusting 2 13.9
2014-Apr-18 16:47 130 2 gusting 3 13.9
2014-Apr-18 16:44 130 0 gusting 2 13.9
2014-Apr-18 16:37 120 13.9
2014-Apr-18 16:32 120 13.9
2014-Apr-18 16:29 120 13.9
2014-Apr-18 16:22 120 14.4
2014-Apr-18 16:17 120 14.4
2014-Apr-18 16:15 120 13.9
2014-Apr-18 16:07 120 14.4
2014-Apr-18 16:02 120 14.4
2014-Apr-18 15:59 119 14.4
2014-Apr-18 15:52 120 14.4
2014-Apr-18 15:47 119 0 gusting 1 14.4
2014-Apr-18 15:43 120 14.4
2014-Apr-18 15:37 120 0 gusting 1 15.0
2014-Apr-18 15:32 120 15.0
2014-Apr-18 15:28 121 14.4
2014-Apr-18 15:22 121 15.0
2014-Apr-18 15:17 121 15.0
2014-Apr-18 15:13 121 15.0
2014-Apr-18 15:07 121 15.0
2014-Apr-18 15:02 121 15.0
2014-Apr-18 14:58 119 15.0
2014-Apr-18 14:52 118 0 gusting 0 15.0
2014-Apr-18 14:47 119 15.0
2014-Apr-18 14:43 118 15.0
2014-Apr-18 14:37 119 0 gusting 1 15.0
2014-Apr-18 14:32 113 2 gusting 3 15.0
2014-Apr-18 14:28 065 0 gusting 2 15.0
2014-Apr-18 14:22 065 15.0
2014-Apr-18 14:17 065 1 gusting 1 15.0
2014-Apr-18 14:13 057 14.4
2014-Apr-18 14:07 010 15.0
2014-Apr-18 14:02 010 0 gusting 2 15.0
2014-Apr-18 13:58 005 14.4
2014-Apr-18 13:52 003 0 gusting 1 15.0
2014-Apr-18 13:47 283 0 gusting 1 14.4
2014-Apr-18 13:42 282 2 gusting 3 14.4
2014-Apr-18 13:37 284 14.4
2014-Apr-18 13:32 284 14.4
2014-Apr-18 13:27 284 2 gusting 5 14.4
2014-Apr-18 13:22 304 1 gusting 3 14.4
2014-Apr-18 13:17 299 0 gusting 6 14.4
2014-Apr-18 13:12 294 1 gusting 2 15.0
2014-Apr-18 13:07 270 1 gusting 7 15.0
2014-Apr-18 13:02 199 15.0
2014-Apr-18 12:58 199 0 gusting 4 14.4
2014-Apr-18 12:52 175 2 gusting 3 15.0
2014-Apr-18 12:47 165 2 gusting 3 14.4
2014-Apr-18 12:42 172 2 gusting 5 14.4
2014-Apr-18 12:37 234 2 gusting 4 14.4
2014-Apr-18 12:32 225 14.4
2014-Apr-18 12:27 222 2 gusting 5 13.9
2014-Apr-18 12:22 215 1 gusting 1 14.4
2014-Apr-18 12:17 218 14.4
2014-Apr-18 12:13 218 0 gusting 3 14.4
2014-Apr-18 12:06 242 14.4
2014-Apr-18 12:02 253 0 gusting 2 14.4
2014-Apr-18 11:57 252 2 gusting 4 14.4
2014-Apr-18 11:52 227 1 gusting 2 14.4
2014-Apr-18 11:47 191 3 gusting 5 14.4
2014-Apr-18 11:42 249 3 gusting 6 14.4
2014-Apr-18 11:37 266 5 gusting 8 14.4
2014-Apr-18 11:32 300 0 gusting 2 13.9
2014-Apr-18 11:27 273 1 gusting 6 13.9
2014-Apr-18 11:22 280 1 gusting 6 13.9
2014-Apr-18 11:17 280 1 gusting 3 13.9
2014-Apr-18 11:12 281 2 gusting 3 13.9
2014-Apr-18 11:06 278 1 gusting 3 13.3
2014-Apr-18 11:03 278 1 gusting 6 13.3
2014-Apr-18 10:57 289 1 gusting 1 13.3
2014-Apr-18 10:52 355 12.8
2014-Apr-18 10:47 313 3 gusting 6 12.8
2014-Apr-18 10:42 340 12.8
2014-Apr-18 10:37 327 2 gusting 6 12.8
2014-Apr-18 10:34 276 2 gusting 3 12.2
2014-Apr-18 10:30 281 0 gusting 5 12.2
2014-Apr-18 10:22 287 0 gusting 1 12.2
2014-Apr-18 10:17 284 1 gusting 1 12.2
2014-Apr-18 10:11 281 2 gusting 7 11.7
2014-Apr-18 10:04 343 1 gusting 3 12.2
2014-Apr-18 09:57 290 1 gusting 4 11.7
2014-Apr-18 09:56 268 1 gusting 7 11.7
2014-Apr-18 09:49 289 2 gusting 6 11.7
2014-Apr-18 09:44 302 4 gusting 7 11.1
2014-Apr-18 09:37 297 2 gusting 3 11.7
2014-Apr-18 09:32 306 4 gusting 7 11.7
2014-Apr-18 09:27 317 5 gusting 8 11.1
2014-Apr-18 09:15 332 2 gusting 11 11.1
2014-Apr-18 09:07 348 4 gusting 6 11.1
2014-Apr-18 09:05 313 4 gusting 6 10.6
2014-Apr-18 09:00 326 4 gusting 8 10.6
2014-Apr-18 08:55 323 4 gusting 9 10.0
2014-Apr-18 08:47 350 2 gusting 4 10.0
2014-Apr-18 08:42 335 5 gusting 6 10.0
2014-Apr-18 08:40 342 3 gusting 10 10.0
2014-Apr-18 08:32 325 6 gusting 9 10.0
2014-Apr-18 08:30 332 6 gusting 6 10.0
2014-Apr-18 08:25 314 6 gusting 12 9.4
2014-Apr-18 08:17 313 3 gusting 7 10.0
2014-Apr-18 08:10 311 3 gusting 10 10.0
2014-Apr-18 08:02 308 4 gusting 9 10.0
2014-Apr-18 07:57 304 4 gusting 8 10.0
2014-Apr-18 07:42 347 5 gusting 10 10.0
2014-Apr-18 07:40 321 6 gusting 15 10.0
2014-Apr-18 07:32 320 7 gusting 9 10.0
2014-Apr-18 07:27 304 6 gusting 7 10.0
2014-Apr-18 07:22 303 6 gusting 8 10.0
2014-Apr-18 07:17 297 5 gusting 9 10.0
2014-Apr-18 07:12 313 6 gusting 8 10.0
2014-Apr-18 07:10 330 5 gusting 6 10.0
2014-Apr-18 07:02 328 6 gusting 8 10.0
2014-Apr-18 06:56 320 4 gusting 9 10.0
2014-Apr-18 06:55 311 3 gusting 7 9.4
2014-Apr-18 06:47 319 6 gusting 8 9.4
2014-Apr-18 06:42 294 6 gusting 11 9.4
2014-Apr-18 06:39 321 6 gusting 11 9.4
2014-Apr-18 06:34 331 5 gusting 2 9.4
2014-Apr-18 06:27 323 1 gusting 6 8.9
2014-Apr-18 06:17 308 6 gusting 8 8.9
2014-Apr-18 06:15 285 4 gusting 7 8.9
2014-Apr-18 06:09 305 4 gusting 8 8.3
2014-Apr-18 05:57 297 3 gusting 6 8.3
2014-Apr-18 05:55 301 2 gusting 6 8.3
2014-Apr-18 05:47 289 2 gusting 2 8.3
2014-Apr-18 05:39 317 3 gusting 7 7.8
2014-Apr-18 05:35 310 3 gusting 2 8.3
2014-Apr-18 05:30 303 2 gusting 6 8.3
2014-Apr-18 05:24 302 1 gusting 5 7.8
2014-Apr-18 05:16 308 3 gusting 6 8.3
2014-Apr-18 05:12 277 1 gusting 2 8.3
2014-Apr-18 05:10 271 8.3
2014-Apr-18 05:02 271 8.3
2014-Apr-18 04:57 307 2 gusting 4 8.3
2014-Apr-18 04:54 310 2 gusting 8 7.8
2014-Apr-18 04:48 324 2 gusting 4 8.3
2014-Apr-18 04:42 316 5 gusting 6 8.3
2014-Apr-18 04:38 345 5 gusting 8 7.8
2014-Apr-18 04:32 314 4 gusting 6 8.3
2014-Apr-18 04:29 340 2 gusting 4 8.3
2014-Apr-18 04:23 332 2 gusting 5 7.8
2014-Apr-18 04:17 315 3 gusting 4 8.3
2014-Apr-18 04:12 322 3 gusting 6 8.3
2014-Apr-18 04:07 317 3 gusting 5 8.3
2014-Apr-18 04:02 333 3 gusting 6 8.3
2014-Apr-18 03:57 314 2 gusting 4 8.3
2014-Apr-18 03:55 329 1 gusting 5 8.3
2014-Apr-18 03:47 334 3 gusting 4 8.3
2014-Apr-18 03:34 331 3 gusting 2 8.3
2014-Apr-18 03:29 331 2 gusting 3 8.3
2014-Apr-18 03:23 329 1 gusting 4 7.8
2014-Apr-18 03:19 334 2 gusting 4 8.3
2014-Apr-18 03:14 321 2 gusting 3 8.3
2014-Apr-18 03:09 323 2 gusting 4 7.8
2014-Apr-18 03:02 325 2 gusting 4 8.3
2014-Apr-18 02:56 329 1 gusting 2 8.3
2014-Apr-18 02:53 319 2 gusting 6 7.8
2014-Apr-18 02:50 326 3 gusting 5 8.3
2014-Apr-18 02:42 315 5 gusting 3 8.3
2014-Apr-18 02:37 321 3 gusting 9 7.8
2014-Apr-18 02:29 318 5 gusting 7 8.3
2014-Apr-18 02:23 326 3 gusting 9 7.8
2014-Apr-18 02:17 330 2 gusting 5 8.3
2014-Apr-18 02:12 358 3 gusting 5 8.3
2014-Apr-18 02:10 309 4 gusting 6 8.3
2014-Apr-18 02:02 317 5 gusting 6 8.3
2014-Apr-18 01:56 325 5 gusting 6 8.3
2014-Apr-18 01:54 329 6 gusting 12 8.3
2014-Apr-18 01:49 326 6 gusting 6 8.3
2014-Apr-18 01:42 329 3 gusting 4 8.3
2014-Apr-18 01:34 312 5 gusting 10 8.3
2014-Apr-18 01:28 302 7 gusting 8 8.3
2014-Apr-18 01:23 313 6 gusting 10 8.9
2014-Apr-18 01:16 308 5 gusting 8 8.9
2014-Apr-18 01:12 305 5 gusting 10 8.9
2014-Apr-18 01:08 310 2 gusting 4 8.9
2014-Apr-18 01:03 306 3 gusting 4 8.9
2014-Apr-18 00:56 316 5 gusting 6 8.9
2014-Apr-18 00:52 308 6 gusting 8 8.9
2014-Apr-18 00:47 305 5 gusting 10 8.9
2014-Apr-18 00:42 289 2 gusting 7 8.9
2014-Apr-18 00:40 303 3 gusting 6 8.9
2014-Apr-18 00:36 309 3 gusting 9 8.9
2014-Apr-18 00:30 295 3 gusting 9 9.4
2014-Apr-18 00:24 332 4 gusting 4 9.4
2014-Apr-18 00:16 280 3 gusting 6 9.4
2014-Apr-18 00:12 275 4 gusting 6 9.4
2014-Apr-18 00:07 271 2 gusting 6 9.4
2014-Apr-18 00:06 272 2 gusting 6 8.9
2014-Apr-17 23:56 275 2 gusting 5 9.4
2014-Apr-17 23:52 277 1 gusting 3 9.4
2014-Apr-17 23:51 277 1 gusting 6 9.4
2014-Apr-17 23:42 278 2 gusting 3 9.4
2014-Apr-17 23:39 281 2 gusting 2 9.4
2014-Apr-17 23:32 291 3 gusting 4 9.4
2014-Apr-17 23:26 307 3 gusting 6 9.4
2014-Apr-17 23:21 309 2 gusting 6 9.4
2014-Apr-17 23:12 328 1 gusting 4 9.4
2014-Apr-17 23:06 344 2 gusting 2 9.4
2014-Apr-17 22:59 327 5 gusting 6 9.4
2014-Apr-17 22:52 330 3 gusting 7 9.4
2014-Apr-17 22:51 351 4 gusting 10 9.4
2014-Apr-17 22:42 306 7 gusting 8 9.4
2014-Apr-17 22:35 345 3 gusting 11 9.4
2014-Apr-17 22:29 326 5 gusting 9 9.4
2014-Apr-17 22:24 320 8 gusting 9 9.4
2014-Apr-17 22:18 332 5 gusting 9 9.4
2014-Apr-17 22:12 332 6 gusting 9 10.0
2014-Apr-17 22:07 327 5 gusting 7 10.0
2014-Apr-17 22:02 331 5 gusting 6 10.0
2014-Apr-17 21:56 327 3 gusting 6 10.0
2014-Apr-17 21:52 335 2 gusting 4 10.0
2014-Apr-17 21:50 360 2 gusting 8 9.4
2014-Apr-17 21:45 348 3 gusting 6 10.0
2014-Apr-17 21:39 321 4 gusting 6 10.0
2014-Apr-17 21:35 310 4 gusting 9 10.0
2014-Apr-17 21:30 312 4 gusting 7 10.0
2014-Apr-17 21:22 336 3 gusting 6 10.0
2014-Apr-17 21:17 323 5 gusting 7 10.0
2014-Apr-17 21:07 328 4 gusting 3 10.6
2014-Apr-17 20:57 336 6 gusting 10 10.6
2014-Apr-17 20:52 312 5 gusting 9 10.6
2014-Apr-17 20:50 300 4 gusting 13 10.0
2014-Apr-17 20:45 351 8 gusting 13 10.6
2014-Apr-17 20:36 320 6 gusting 11 10.6
2014-Apr-17 20:27 354 7 gusting 7 10.6
2014-Apr-17 20:22 326 6 gusting 9 10.6
2014-Apr-17 20:17 300 4 gusting 6 10.6
2014-Apr-17 20:15 299 4 gusting 9 10.6
2014-Apr-17 20:10 314 3 gusting 6 10.6
2014-Apr-17 20:05 296 4 gusting 8 10.0
2014-Apr-17 19:58 320 7 gusting 10 10.6
2014-Apr-17 19:52 322 6 gusting 8 10.6
2014-Apr-17 19:49 355 5 gusting 10 10.6
2014-Apr-17 19:45 338 6 gusting 9 10.6
2014-Apr-17 19:37 338 6 gusting 7 11.1
2014-Apr-17 19:31 008 4 gusting 6 11.1
2014-Apr-17 19:26 315 6 gusting 9 11.1
2014-Apr-17 19:19 326 3 gusting 11 11.1
2014-Apr-17 19:12 338 6 gusting 7 11.1
2014-Apr-17 19:07 343 5 gusting 9 11.7
2014-Apr-17 19:02 333 5 gusting 11 11.7
2014-Apr-17 18:59 330 7 gusting 9 11.7
2014-Apr-17 18:54 354 5 gusting 9 11.7
2014-Apr-17 18:49 314 3 gusting 10 11.7
2014-Apr-17 18:45 334 6 gusting 9 12.2
2014-Apr-17 18:40 332 6 gusting 8 12.2
2014-Apr-17 18:34 319 6 gusting 12 11.7
2014-Apr-17 18:26 328 6 gusting 8 12.2
2014-Apr-17 18:24 288 9 gusting 9 12.2
2014-Apr-17 18:19 342 6 gusting 8 12.8
2014-Apr-17 18:08 12.8
2014-Apr-17 18:04 333 4 gusting 9 12.8
2014-Apr-17 18:00 322 5 gusting 9 13.3
2014-Apr-17 17:54 311 6 gusting 6 13.3
2014-Apr-17 17:49 336 3 gusting 8 13.3
2014-Apr-17 17:42 305 2 gusting 3 13.3
2014-Apr-17 17:36 346 0 gusting 2 13.3
2014-Apr-17 17:34 346 13.3
2014-Apr-17 17:27 322 0 gusting 1 13.9
2014-Apr-17 17:24 355 1 gusting 3 13.9
2014-Apr-17 17:20 334 3 gusting 6 13.9
2014-Apr-17 17:14 022 2 gusting 2 13.9
2014-Apr-17 17:03 313 2 gusting 7 13.9